Regional Weather Roundup
Issued by NWS

Home | Current Version | Previous Version | Graphics & Text | Print | Product List | Glossary On
Versions: 1 2 3 4 5 6 7 8 9 10 11 12 13 14 15 16 17 18 19 20 21 22 23 24 25 26 27 28 29 30 31 32 33 34 35 36 37 38 39 40 41 42 43 44 45 46 47 48 49 50
000
ASUS43 KLOT 290510
RWRIL

ILLINOIS REGIONAL WEATHER ROUNDUP
NATIONAL WEATHER SERVICE CHICAGO/ROMEOVILLE IL
1100 PM CST WED JAN 28 2015

NOTE: "FAIR" INDICATES FEW OR NO CLOUDS BELOW 12,000 FEET WITH NO
SIGNIFICANT WEATHER AND/OR OBSTRUCTIONS TO VISIBILITY.

* THESE STATIONS ARE NOT UNDER NWS QUALITY CONTROL. THEY ALSO MAY NOT
  REPORT WEATHER SUCH AS PRECIPITATION OR FOG.

ILZ001-002-007-009-015-016-024-290600-
NORTHWEST ILLINOIS

CITY           SKY/WX    TMP DP  RH WIND       PRES   REMARKS
MOLINE         CLEAR     38  31  76 SE8       29.70F WCI  32
STERLING*      PTCLDY    36  28  75 SE7       29.76F WCI  30
SAVANNA*       PTCLDY    33  29  85 SE9       29.74F WCI  26
$$

ILZ003-004-008-010-011-017-018-290600-
NORTH CENTRAL ILLINOIS

CITY           SKY/WX    TMP DP  RH WIND       PRES   REMARKS
ROCKFORD       CLOUDY    34  26  72 S17G25    29.80F WCI  23
FREEPORT*      MOCLDY    31  28  86 SE9       29.77F WCI  23
ROCHELLE*      CLOUDY    32  29  87 S18       29.79F WCI  20
DE KALB*       CLOUDY    31  26  81 S21G26    29.80F WCI  19
PERU*          CLOUDY    36  30  79 S21G26    29.78F WCI  25
$$

ILZ005-006-012>014-019>023-290600-
NORTHEAST ILLINOIS

CITY           SKY/WX    TMP DP  RH WIND       PRES   REMARKS
CHICAGO-OHARE  LGT RAIN  34  23  64 S16G24    29.85F WCI  24
CHICAGO-MIDWAY LGT RAIN  36  22  56 S15       29.87F WCI  27
AURORA         CLOUDY    34  26  72 S17G25    29.83F WCI  23
LANSING*       CLOUDY    33  24  70 S17       29.89F WCI  22
JOLIET*        CLOUDY    34  25  69 S14G21    29.86F WCI  24
WAUKEGAN       CLOUDY    33  21  61 S12       29.85F WCI  24
DUPAGE AIRPORT LGT RAIN  34  26  72 S14G24    29.83F WCI  25
KANKAKEE*      LGT RAIN  34  27  76 S15G21    29.89F WCI  24
WHEELING       CLOUDY    34  21  59 S15G22    29.88F WCI  24
MORRIS*        CLOUDY    34  29  80 S17       29.83F WCI  24
ROMEOVILLE*    CLOUDY    33  25  70 S18G24    29.85F WCI  22
NORTHERLY ISL    N/A     35  21  57 SE20        N/A  WCI  24
$$

LMZ740>746-290600-
SOUTHERN LAKE MICHIGAN

STATION/POSITION SKY/WX   TEMP    WIND        PRES    VSBY  WAVE
                          AIR SEA DIR/SP/G                  HT/PER
                          (F)     (DEG/KT/KT) (MB)    (MI)  (FT/S)
WAUKEGAN HARBOR            33     160/ 16/ 19   N/A
HARRISON CRIB              34     160/ 20/ 25   N/A
BURNHAM HARBOR             35     170/ 11/ 18   N/A
CALUMET HARBOR             34     150/ 15/ 21   N/A
MICHIGAN CITY              33     140/ 17/ 23   N/A
$$

ILZ025>027-034>036-040-047-049-050-058-095>099-290600-
WEST-CENTRAL ILLINOIS

CITY           SKY/WX    TMP DP  RH WIND       PRES   REMARKS
QUINCY         MOCLDY    46  34  62 S15G25    29.71F
GALESBURG*     CLEAR     37  32  82 SE10G16   29.71F WCI  30
MACOMB*        PTCLDY    38  34  84 S18       29.74F WCI  29
JACKSONVILLE*  CLEAR     43  35  72 S14       29.78F
PITTSFIELD*    PTCLDY    46  35  67 S16       29.76F
$$

ILZ028>032-037-038-041>044-048-051>054-059>061-290600-
CENTRAL ILLINOIS

CITY           SKY/WX    TMP DP  RH WIND       PRES   REMARKS
PONTIAC        CLOUDY    37  30  77 S20G26    29.84F WCI  26
BLOOMINGTON    CLOUDY    35  31  86 S23G31    29.83F WCI  23
DECATUR        CLOUDY    39  29  67 S17       29.87F WCI  30
PEORIA         PTCLDY    38  31  76 S20G26    29.78F WCI  28
LACON*         PTCLDY    37  30  75 S13G23    29.77F WCI  29
LINCOLN*       MOCLDY    38  32  78 S13G20    29.84F WCI  30
SPRINGFIELD    PTCLDY    42  32  67 S21G28    29.82F
TAYLORVILLE    CLOUDY    41  32  70 S17G29    29.85F
$$

ILZ033-039-045-046-055>057-062-063-290600-
EAST-CENTRAL ILLINOIS

CITY           SKY/WX    TMP DP  RH WIND       PRES   REMARKS
CHAMPAIGN      CLOUDY    36  26  67 S16       29.91F WCI  26
DANVILLE*      CLOUDY    36  23  60 S17G25    29.90F WCI  25
RANTOUL*       RAIN      36  28  73 S17       29.91F WCI  26
MATTOON        CLOUDY    37  25  61 S17       29.91S WCI  27
PARIS*         CLOUDY    36  26  66 S15G21    29.97R WCI  27
$$

ILZ079-100>102-290600-
SOUTHWEST ILLINOIS

CITY           SKY/WX    TMP DP  RH WIND       PRES   REMARKS
ALTON          PTCLDY    43  32  65 S13       29.85F
BELLEVILLE     CLOUDY    44  34  67 S10G16    29.86F
CAHOKIA*       MOCLDY    42  33  70 SE3       29.86F
SPARTA*        CLOUDY    47  32  56 S15G25    29.91F
$$

ILZ064>066-069>071-074>076-080>082-084>086-088>090-092>094-290600-
SOUTH-CENTRAL ILLINOIS

CITY           SKY/WX    TMP DP  RH WIND       PRES   REMARKS
CARBONDALE     MOCLDY    46  30  53 S16       29.94F
CAIRO*         CLOUDY    48  32  54 S7        30.01F
EFFINGHAM*     CLOUDY    40  24  53 SE13      29.95S
MARION         CLOUDY    48  32  53 S20G30    29.96F
MT. VERNON     MOCLDY    43  28  56 S12       29.93F
CENTRALIA*     PTCLDY    42  30  63 S15       29.90F
SALEM*         CLOUDY    44  30  58 S9        29.92S
METROPOLIS*    CLOUDY    46  32  58 S7        30.01F
$$

ILZ067-068-072-073-078-083-087-091-290600-
SOUTHEAST ILLINOIS

CITY           SKY/WX    TMP DP  RH WIND       PRES   REMARKS
LAWRENCEVILLE  CLOUDY    39  25  57 S17       29.99F WCI  30
FLORA*         CLOUDY    38  29  69 S15       29.95F WCI  30
FAIRFIELD*     CLOUDY    40  29  65 S9        29.95F
HARRISBURG*    MOCLDY    47  30  51 S12G20    29.99F
ROBINSON*      CLOUDY    37  25  60 S13G18    29.99F WCI  29
CARMI*         CLOUDY    40  32  74 SE10      29.99S
$$

ABBREVIATIONS USED IN REMARKS
   TC - TEMPERATURE IN CELSIUS
  WCI - WIND CHILL INDEX
   HX - HEAT INDEX
  VSB - VISIBILITY
$$



USA.gov is the U.S. government's official web portal to all federal, state and local government web resources and services.